Weather History for KMTV - November, 2012

Change the Weather History Date:

Sunday, November 18, 2012

  Actual Average (KGSO) Record (KGSO)
Temperature  
Mean Temperature 50 °F 49 °F  
Max Temperature 57 °F 60 °F 77 °F (1938)
Min Temperature 42 °F 39 °F 21 °F (1959)
Degree Days  
Heating Degree Days 16 16  
Month to date heating degree days 233  
Since 1 July heating degree days 466  
Cooling Degree Days 0 0  
Month to date cooling degree days 0  
Year to date cooling degree days 1480  
Moisture  
Dew Point 35 °F    
Average Humidity 56    
Maximum Humidity 66    
Minimum Humidity 48    
Precipitation  
Precipitation 0.00 in 0.11 in 1.22 in (1927)
Month to date precipitation 1.88  
Year to date precipitation 37.99  
Sea Level Pressure  
Sea Level Pressure 30.48 in    
Wind  
Wind Speed 5 mph (NNE)    
Max Wind Speed 13 mph    
Max Gust Speed 22 mph    
Visibility 10 miles    
Events      
T = Trace of Precipitation, MM = Missing Value Source: NWS Daily Summary

Daily Weather History Graph

Daily Weather History Graph

Search for Another Location

Airport or City:

Trip Planner

Search our weather history database for the weather conditions in past years. The results will help you decide how hot, cold, wet, or windy it might be!

Date:

Astronomy

Nov. 18, 2012 Rise Set
Actual Time 7:01 AM EST 5:08 PM EST
Civil Twilight 6:33 AM EST 5:36 PM EST
Nautical Twilight 6:02 AM EST 6:08 PM EST
Astronomical Twilight 5:31 AM EST 6:38 PM EST
Moon 11:28 AM EST (11/18) 10:24 PM EST (11/18)
Length of Visible Light 11h 03m
Length of Day
10h 07m
Waxing Crescent, 30% of the Moon is Illuminated
Nov 18
Waxing Crescent
Nov 20
First Quarter
Nov 28
Full
Dec 6
Last Quarter
Dec 13
New

Hourly Weather History & Observations

Time (EST) Temp. Windchill Dew Point Humidity Pressure Visibility Wind Dir Wind Speed Gust Speed Precip Events Conditions
12:15 AM 44.6 °F 42.2 °F 26.6 °F 49% 30.52 in 10.0 mi NNW 4.6 mph - N/A   Mostly Cloudy
12:35 AM 44.6 °F 43.1 °F 26.6 °F 49% 30.51 in 10.0 mi North 3.5 mph - N/A   Overcast
12:55 AM 42.8 °F 41.1 °F 26.6 °F 53% 30.51 in 10.0 mi NNW 3.5 mph - N/A   Mostly Cloudy
1:15 AM 42.8 °F 40.1 °F 28.4 °F 57% 30.50 in 10.0 mi NNW 4.6 mph - N/A   Scattered Clouds
1:35 AM 42.8 °F 41.1 °F 28.4 °F 57% 30.51 in 10.0 mi NNW 3.5 mph - N/A   Mostly Cloudy
1:55 AM 44.6 °F - 28.4 °F 53% 30.51 in 10.0 mi Calm Calm - N/A   Overcast
2:15 AM 44.6 °F 42.2 °F 30.2 °F 57% 30.51 in 10.0 mi North 4.6 mph - N/A   Overcast
2:55 AM 44.6 °F 41.4 °F 30.2 °F 57% 30.52 in 10.0 mi North 5.8 mph - N/A   Overcast
3:15 AM 44.6 °F 42.2 °F 32.0 °F 61% 30.51 in 10.0 mi NNW 4.6 mph - N/A   Overcast
3:35 AM 44.6 °F 41.4 °F 32.0 °F 61% 30.51 in 10.0 mi North 5.8 mph - N/A   Overcast
3:55 AM 44.6 °F 40.7 °F 33.8 °F 66% 30.50 in 10.0 mi North 6.9 mph - N/A   Overcast
4:15 AM 44.6 °F 42.2 °F 33.8 °F 66% 30.51 in 10.0 mi North 4.6 mph - N/A   Overcast
4:35 AM 44.6 °F 42.2 °F 33.8 °F 66% 30.51 in 10.0 mi North 4.6 mph - N/A   Overcast
4:55 AM 46.4 °F 42.9 °F 33.8 °F 62% 30.51 in 10.0 mi North 6.9 mph - N/A   Overcast
5:15 AM 46.4 °F 44.3 °F 33.8 °F 62% 30.52 in 10.0 mi North 4.6 mph - N/A   Overcast
5:35 AM 46.4 °F - 33.8 °F 62% 30.52 in 10.0 mi Calm Calm - N/A   Overcast
5:55 AM 46.4 °F 43.5 °F 33.8 °F 62% 30.52 in 10.0 mi North 5.8 mph - N/A   Overcast
6:15 AM 46.4 °F 44.3 °F 33.8 °F 62% 30.52 in 10.0 mi North 4.6 mph - N/A   Overcast
6:35 AM 46.4 °F 43.5 °F 33.8 °F 62% 30.52 in 10.0 mi North 5.8 mph - N/A   Mostly Cloudy
6:55 AM 46.4 °F 43.5 °F 33.8 °F 62% 30.51 in 10.0 mi North 5.8 mph - N/A   Scattered Clouds
7:15 AM 46.4 °F 44.3 °F 33.8 °F 62% 30.52 in 10.0 mi North 4.6 mph - N/A   Mostly Cloudy
7:35 AM 46.4 °F 43.5 °F 33.8 °F 62% 30.52 in 10.0 mi North 5.8 mph - N/A   Overcast
7:55 AM 46.4 °F 45.2 °F 33.8 °F 62% 30.52 in 10.0 mi North 3.5 mph - N/A   Overcast
8:15 AM 46.4 °F 44.3 °F 33.8 °F 62% 30.52 in 10.0 mi North 4.6 mph - N/A   Mostly Cloudy
8:35 AM 48.2 °F - 33.8 °F 58% 30.52 in 10.0 mi North 6.9 mph - N/A   Mostly Cloudy
8:55 AM 48.2 °F - 33.8 °F 58% 30.53 in 10.0 mi North 4.6 mph - N/A   Overcast
9:15 AM 48.2 °F - 33.8 °F 58% 30.53 in 10.0 mi North 3.5 mph - N/A   Mostly Cloudy
9:35 AM 50.0 °F - 35.6 °F 58% 30.53 in 10.0 mi NNE 5.8 mph - N/A   Mostly Cloudy
9:55 AM 51.8 °F - 35.6 °F 54% 30.53 in 10.0 mi NNE 8.1 mph 16.1 mph N/A   Mostly Cloudy
10:15 AM 51.8 °F - 35.6 °F 54% 30.52 in 10.0 mi NNE 9.2 mph 16.1 mph N/A   Mostly Cloudy
10:35 AM 53.6 °F - 37.4 °F 54% 30.52 in 10.0 mi North 9.2 mph 19.6 mph N/A   Mostly Cloudy
10:55 AM 53.6 °F - 37.4 °F 54% 30.51 in 10.0 mi ENE 11.5 mph - N/A   Mostly Cloudy
11:15 AM 55.4 °F - 37.4 °F 51% 30.51 in 10.0 mi NNE 11.5 mph 21.9 mph N/A   Mostly Cloudy
11:35 AM 55.4 °F - 37.4 °F 51% 30.51 in 10.0 mi NE 12.7 mph 17.3 mph N/A   Overcast
11:55 AM 53.6 °F - 37.4 °F 54% 30.49 in 10.0 mi NNE 5.8 mph - N/A   Overcast
12:15 PM 55.4 °F - 37.4 °F 51% 30.48 in 10.0 mi NNE 9.2 mph - N/A   Mostly Cloudy
12:35 PM 55.4 °F - 37.4 °F 51% 30.47 in 10.0 mi NE 9.2 mph - N/A   Mostly Cloudy
12:55 PM 55.4 °F - 37.4 °F 51% 30.46 in 10.0 mi NE 8.1 mph 16.1 mph N/A   Overcast
1:15 PM 55.4 °F - 37.4 °F 51% 30.46 in 10.0 mi ENE 12.7 mph 17.3 mph N/A   Mostly Cloudy
1:35 PM 55.4 °F - 37.4 °F 51% 30.46 in 10.0 mi NNE 11.5 mph - N/A   Mostly Cloudy
1:55 PM 55.4 °F - 37.4 °F 51% 30.45 in 10.0 mi North 6.9 mph - N/A   Mostly Cloudy
2:15 PM 55.4 °F - 37.4 °F 51% 30.44 in 10.0 mi NNE 5.8 mph - N/A   Mostly Cloudy
2:35 PM 55.4 °F - 37.4 °F 51% 30.44 in 10.0 mi NNE 5.8 mph - N/A   Mostly Cloudy
2:55 PM 55.4 °F - 37.4 °F 51% 30.43 in 10.0 mi ENE 9.2 mph 17.3 mph N/A   Scattered Clouds
3:15 PM 57.2 °F - 37.4 °F 48% 30.43 in 10.0 mi NNE 6.9 mph - N/A   Scattered Clouds
3:35 PM 55.4 °F - 37.4 °F 51% 30.43 in 10.0 mi NE 8.1 mph - N/A   Mostly Cloudy
3:55 PM 55.4 °F - 37.4 °F 51% 30.43 in 10.0 mi NNE 6.9 mph 16.1 mph N/A   Mostly Cloudy
4:15 PM 55.4 °F - 39.2 °F 54% 30.43 in 10.0 mi NE 5.8 mph - N/A   Mostly Cloudy
4:35 PM 55.4 °F - 37.4 °F 51% 30.43 in 10.0 mi NNE 4.6 mph - N/A   Overcast
4:55 PM 53.6 °F - 37.4 °F 54% 30.43 in 10.0 mi NNE 4.6 mph - N/A   Mostly Cloudy
5:15 PM 53.6 °F - 37.4 °F 54% 30.44 in 10.0 mi North 3.5 mph - N/A   Scattered Clouds
5:35 PM 53.6 °F - 37.4 °F 54% 30.44 in 10.0 mi North 3.5 mph - N/A   Scattered Clouds
5:55 PM 53.6 °F - 37.4 °F 54% 30.44 in 10.0 mi Calm Calm - N/A   Mostly Cloudy
6:15 PM 53.6 °F - 37.4 °F 54% 30.44 in 10.0 mi NNE 3.5 mph - N/A   Overcast
6:35 PM 53.6 °F - 37.4 °F 54% 30.45 in 10.0 mi Calm Calm - N/A   Overcast
6:55 PM 53.6 °F - 37.4 °F 54% 30.45 in 10.0 mi NNE 5.8 mph - N/A   Overcast
7:15 PM 53.6 °F - 37.4 °F 54% 30.45 in 10.0 mi NE 8.1 mph - N/A   Overcast
7:35 PM 53.6 °F - 37.4 °F 54% 30.46 in 10.0 mi NNE 8.1 mph - N/A   Overcast
7:55 PM 53.6 °F - 37.4 °F 54% 30.45 in 10.0 mi North 8.1 mph - N/A   Overcast
8:15 PM 53.6 °F - 37.4 °F 54% 30.45 in 10.0 mi NNE 5.8 mph - N/A   Overcast
8:35 PM 51.8 °F - 37.4 °F 58% 30.45 in 10.0 mi North 5.8 mph - N/A   Overcast
9:15 PM 51.8 °F - 37.4 °F 58% 30.45 in 10.0 mi North 4.6 mph - N/A   Overcast
9:35 PM 51.8 °F - 37.4 °F 58% 30.45 in 10.0 mi North 4.6 mph - N/A   Overcast
9:55 PM 51.8 °F - 37.4 °F 58% 30.45 in 10.0 mi North 5.8 mph - N/A   Mostly Cloudy
10:15 PM 51.8 °F - 37.4 °F 58% 30.45 in 10.0 mi NNE 4.6 mph - N/A   Mostly Cloudy
10:35 PM 51.8 °F - 37.4 °F 58% 30.45 in 10.0 mi North 5.8 mph - N/A   Overcast
10:55 PM 51.8 °F - 37.4 °F 58% 30.44 in 10.0 mi North 4.6 mph - N/A   Overcast
11:35 PM 51.8 °F - 37.4 °F 58% 30.43 in 10.0 mi North 9.2 mph - N/A   Overcast
11:55 PM 51.8 °F - 37.4 °F 58% 30.43 in 10.0 mi NNE 4.6 mph - N/A   Overcast